EKA101 PANC-PAEN

Flight info

Callsign EKA101
Flight time 0h 23m
Altitude 12000
Route TED ENA
Aircraft DH8A/M-SDFGR/S

Departure

Time 2026-05-08 01:40
Airport Ted Stevens Anchorage International Airport (PANC)

Arrival

Time 2026-05-08 02:04
Airport Kenai Municipal Airport (PAEN)
Time Latitude Longitude Altitude Speed Heading
2026-05-08 01:38 61.17196 -149.97685 157 ft 0 kts 47°
2026-05-08 01:38 61.17196 -149.97659 157 ft 5 kts 131°
2026-05-08 01:38 61.17127 -149.97570 157 ft 18 kts 105°
2026-05-08 01:38 61.17123 -149.97259 157 ft 25 kts 90°
2026-05-08 01:39 61.17124 -149.96917 157 ft 16 kts 98°
2026-05-08 01:39 61.17041 -149.96790 157 ft 20 kts 177°
2026-05-08 01:39 61.16972 -149.96919 157 ft 22 kts 274°
2026-05-08 01:39 61.16976 -149.98027 158 ft 120 kts 271°
2026-05-08 01:40 61.16989 -149.99893 507 ft 141 kts 270°
2026-05-08 01:40 61.16995 -150.02116 896 ft 163 kts 271°
2026-05-08 01:40 61.16748 -150.04485 1292 ft 177 kts 244°
2026-05-08 01:40 61.15858 -150.06316 1734 ft 186 kts 216°
2026-05-08 01:41 61.14708 -150.07664 2158 ft 194 kts 208°
2026-05-08 01:41 61.13483 -150.08947 2568 ft 200 kts 209°
2026-05-08 01:41 61.12286 -150.10378 2968 ft 202 kts 213°
2026-05-08 01:41 61.11123 -150.12043 3371 ft 204 kts 218°
2026-05-08 01:42 61.10009 -150.13879 3773 ft 206 kts 221°
2026-05-08 01:42 61.08932 -150.15838 4175 ft 207 kts 224°
2026-05-08 01:42 61.07885 -150.17869 4640 ft 205 kts 226°
2026-05-08 01:42 61.06865 -150.19930 5113 ft 205 kts 227°
2026-05-08 01:43 61.05855 -150.22022 5589 ft 206 kts 228°
2026-05-08 01:43 61.04848 -150.24143 6065 ft 207 kts 229°
2026-05-08 01:43 61.03842 -150.26285 6541 ft 209 kts 229°
2026-05-08 01:43 61.02829 -150.28453 7018 ft 211 kts 229°
2026-05-08 01:44 61.01807 -150.30648 7497 ft 213 kts 229°
2026-05-08 01:44 61.00672 -150.32625 7961 ft 217 kts 212°
2026-05-08 01:44 60.99271 -150.33809 8456 ft 219 kts 199°
2026-05-08 01:44 60.97799 -150.34683 8937 ft 221 kts 197°
2026-05-08 01:45 60.96311 -150.35507 9414 ft 222 kts 197°
2026-05-08 01:45 60.94822 -150.36371 9893 ft 222 kts 198°
2026-05-08 01:45 60.93342 -150.37287 10370 ft 222 kts 200°
2026-05-08 01:45 60.91870 -150.38250 10848 ft 221 kts 201°
2026-05-08 01:46 60.90411 -150.39242 11325 ft 221 kts 202°
2026-05-08 01:46 60.88955 -150.40260 11798 ft 220 kts 202°
2026-05-08 01:46 60.87467 -150.41326 11958 ft 233 kts 203°
2026-05-08 01:46 60.85891 -150.42475 12001 ft 246 kts 203°
2026-05-08 01:47 60.84246 -150.43682 12005 ft 255 kts 203°
2026-05-08 01:47 60.82576 -150.44907 12001 ft 260 kts 203°
2026-05-08 01:47 60.80862 -150.46165 12000 ft 263 kts 203°
2026-05-08 01:48 60.77387 -150.48710 12002 ft 266 kts 203°
2026-05-08 01:48 60.75642 -150.49984 12004 ft 267 kts 203°
2026-05-08 01:48 60.73891 -150.51261 12002 ft 268 kts 203°
2026-05-08 01:48 60.72132 -150.52542 12003 ft 268 kts 204°
2026-05-08 01:49 60.70371 -150.53824 12003 ft 268 kts 203°
2026-05-08 01:49 60.68609 -150.55107 12004 ft 269 kts 203°
2026-05-08 01:49 60.66844 -150.56391 12006 ft 269 kts 203°
2026-05-08 01:49 60.65081 -150.57674 12005 ft 269 kts 203°
2026-05-08 01:50 60.63315 -150.58956 12008 ft 269 kts 203°
2026-05-08 01:50 60.61546 -150.60239 12010 ft 269 kts 203°
2026-05-08 01:50 60.59782 -150.61517 12009 ft 270 kts 203°
2026-05-08 01:50 60.58010 -150.62800 12010 ft 270 kts 204°
2026-05-08 01:51 60.56241 -150.64078 12011 ft 270 kts 204°
2026-05-08 01:51 60.54496 -150.65337 12011 ft 269 kts 204°
2026-05-08 01:51 60.52731 -150.66612 12012 ft 270 kts 204°
2026-05-08 01:51 60.50963 -150.67888 12012 ft 270 kts 204°
2026-05-08 01:52 60.49194 -150.69164 12014 ft 270 kts 204°
2026-05-08 01:52 60.47421 -150.70440 12016 ft 270 kts 204°
2026-05-08 01:52 60.45646 -150.71715 12014 ft 270 kts 204°
2026-05-08 01:52 60.43873 -150.72988 12016 ft 270 kts 204°
2026-05-08 01:53 60.42099 -150.74259 12016 ft 270 kts 204°
2026-05-08 01:53 60.40321 -150.75531 12014 ft 271 kts 204°
2026-05-08 01:53 60.38544 -150.76801 11988 ft 271 kts 204°
2026-05-08 01:53 60.36805 -150.78066 11731 ft 259 kts 206°
2026-05-08 01:54 60.35387 -150.80052 11456 ft 240 kts 231°
2026-05-08 01:54 60.34620 -150.82884 11205 ft 224 kts 253°
2026-05-08 01:54 60.34256 -150.85869 10950 ft 216 kts 261°
2026-05-08 01:54 60.34005 -150.88791 10692 ft 211 kts 262°
2026-05-08 01:55 60.33748 -150.91728 10425 ft 209 kts 261°
2026-05-08 01:55 60.33461 -150.94554 10168 ft 207 kts 260°
2026-05-08 01:55 60.33134 -150.97381 9908 ft 206 kts 258°
2026-05-08 01:55 60.32776 -151.00186 9648 ft 206 kts 257°
2026-05-08 01:56 60.32399 -151.02972 9389 ft 206 kts 257°
2026-05-08 01:56 60.32010 -151.05746 9128 ft 204 kts 256°
2026-05-08 01:56 60.31616 -151.08496 8868 ft 204 kts 256°
2026-05-08 01:56 60.31230 -151.11284 8610 ft 210 kts 260°
2026-05-08 01:57 60.31331 -151.14237 8346 ft 216 kts 290°
2026-05-08 01:57 60.32140 -151.16784 8116 ft 219 kts 311°
2026-05-08 01:57 60.33213 -151.18995 7866 ft 222 kts 316°
2026-05-08 01:57 60.34313 -151.21207 7610 ft 225 kts 315°
2026-05-08 01:58 60.35379 -151.23542 7353 ft 226 kts 312°
2026-05-08 01:58 60.36391 -151.25991 7096 ft 227 kts 310°
2026-05-08 01:58 60.37351 -151.28511 6838 ft 226 kts 308°
2026-05-08 01:58 60.38279 -151.31085 6583 ft 222 kts 307°
2026-05-08 01:59 60.39132 -151.33551 6320 ft 212 kts 306°
2026-05-08 01:59 60.39950 -151.35960 6056 ft 204 kts 306°
2026-05-08 01:59 60.40740 -151.38309 5792 ft 199 kts 306°
2026-05-08 01:59 60.41513 -151.40615 5532 ft 196 kts 306°
2026-05-08 02:00 60.42302 -151.42831 5262 ft 191 kts 314°
2026-05-08 02:00 60.43425 -151.44122 4988 ft 186 kts 347°
2026-05-08 02:00 60.44681 -151.43859 4727 ft 184 kts 21°
2026-05-08 02:00 60.45644 -151.42184 4392 ft 189 kts 51°
2026-05-08 02:01 60.46361 -151.39872 3940 ft 196 kts 55°
2026-05-08 02:01 60.47184 -151.37632 3466 ft 200 kts 47°
2026-05-08 02:01 60.48200 -151.35693 2993 ft 202 kts 37°
2026-05-08 02:01 60.49363 -151.34077 2521 ft 202 kts 31°
2026-05-08 02:02 60.50564 -151.32645 2074 ft 201 kts 28°
2026-05-08 02:02 60.51748 -151.31286 1630 ft 193 kts 28°
2026-05-08 02:02 60.52900 -151.29957 1153 ft 189 kts 30°
2026-05-08 02:02 60.54033 -151.28621 678 ft 187 kts 30°
2026-05-08 02:03 60.55117 -151.27311 450 ft 166 kts 31°
2026-05-08 02:03 60.55982 -151.26257 262 ft 121 kts 31°
2026-05-08 02:03 60.56613 -151.25486 115 ft 91 kts 31°
2026-05-08 02:03 60.57053 -151.24947 104 ft 53 kts 31°
2026-05-08 02:04 60.57154 -151.24811 104 ft 4 kts 125°
2026-05-08 02:04 60.57059 -151.24921 104 ft 26 kts 210°
2026-05-08 02:04 60.56878 -151.25140 104 ft 32 kts 207°
2026-05-08 02:04 60.56804 -151.25122 104 ft 12 kts 128°
2026-05-08 02:05 60.56725 -151.24881 104 ft 27 kts 123°
2026-05-08 02:05 60.56617 -151.24759 104 ft 20 kts 171°
2026-05-08 02:05 60.56546 -151.24783 104 ft 4 kts 215°
2026-05-08 02:05 60.56543 -151.24788 104 ft 0 kts 212°